Location: Newark
(40.9833°N, 0.0333°W)
Time: 01:29:46
(UTC+00:00)

Altair - Pass Details

Date: 01 November 2020
Orbit: 1502 x 1682 km, 47.2° (Epoch: 02 December)

Event Time Altitude Azimuth Distance (km) Brightness Sun altitude
Rises 06:15:21 0° 269° (W) 4,655 - -3.7°
Exits shadow 06:16:03 - 270° (W) 4,432 9.3 -3.6°
Reaches altitude 10° 06:18:25 10° 273° (W) 3,689 8.9 -3.2°
Maximum altitude 06:27:39 61° 353° (N) 1,733 7.7 -1.5°
Drops below altitude 10° 06:37:14 10° 74° (ENE) 3,824 10.6 0.2°
Sets 06:40:28 0° 78° (ENE) 4,834 11.2 0.8°
